�������l�o���
Date,Time,MP-1(��Sv/h),MP-2(��Sv/h),MP-3(��Sv/h),MP-4(��Sv/h),MP-5(��Sv/h),MP-6(��Sv/h),MP-7(��Sv/h),MP-8(��Sv/h),����,����(m/s),���J
2022/05/04,00:00,0.563,0.836,0.537,1.018,0.713,0.342,0.594,0.560,�쐼,5.0,��
2022/05/04,00:10,0.564,0.837,0.539,1.017,0.714,0.342,0.595,0.560,�쐼,6.5,��
2022/05/04,00:20,0.565,0.837,0.538,1.018,0.713,0.343,0.597,0.559,�쐼,5.9,��
2022/05/04,00:30,0.565,0.835,0.540,1.016,0.713,0.342,0.596,0.559,��쐼,4.7,��
2022/05/04,00:40,0.564,0.836,0.539,1.015,0.713,0.343,0.595,0.559,�쐼,3.0,��
2022/05/04,00:50,0.563,0.837,0.538,1.017,0.713,0.343,0.594,0.560,�쐼,2.5,��
2022/05/04,01:00,0.563,0.836,0.538,1.017,0.713,0.344,0.595,0.560,��쐼,2.5,��
2022/05/04,01:10,0.565,0.834,0.538,1.017,0.713,0.343,0.596,0.563,��쐼,3.4,��
2022/05/04,01:20,0.563,0.837,0.538,1.017,0.713,0.342,0.594,0.560,��쐼,2.9,��
2022/05/04,01:30,0.564,0.835,0.537,1.020,0.715,0.342,0.596,0.559,��,2.3,��
2022/05/04,01:40,0.563,0.838,0.540,1.014,0.714,0.343,0.595,0.560,��,3.1,��
2022/05/04,01:50,0.564,0.837,0.538,1.017,0.714,0.344,0.594,0.560,��,3.8,��
2022/05/04,02:00,0.563,0.836,0.538,1.016,0.714,0.344,0.593,0.559,��,4.5,��
2022/05/04,02:10,0.562,0.837,0.538,1.018,0.714,0.343,0.594,0.560,��,4.8,��
2022/05/04,02:20,0.563,0.835,0.538,1.016,0.715,0.344,0.595,0.559,��,5.7,��
2022/05/04,02:30,0.564,0.834,0.538,1.019,0.713,0.343,0.593,0.559,��,5.5,��
2022/05/04,02:40,0.563,0.837,0.539,1.018,0.715,0.344,0.594,0.558,��,4.5,��
2022/05/04,02:50,0.564,0.837,0.539,1.019,0.714,0.343,0.593,0.560,��,4.1,��
2022/05/04,03:00,0.563,0.838,0.538,1.016,0.712,0.343,0.594,0.560,��,4.4,��
2022/05/04,03:10,0.561,0.837,0.538,1.016,0.713,0.343,0.594,0.560,��쐼,4.2,��
2022/05/04,03:20,0.563,0.836,0.538,1.016,0.714,0.344,0.595,0.560,��쐼,3.9,��
2022/05/04,03:30,0.562,0.836,0.537,1.016,0.713,0.343,0.596,0.560,��쐼,3.8,��
2022/05/04,03:40,0.562,0.836,0.537,1.015,0.714,0.343,0.593,0.560,��,5.3,��
2022/05/04,03:50,0.563,0.835,0.539,1.017,0.713,0.344,0.596,0.560,��,5.8,��
2022/05/04,04:00,0.564,0.838,0.539,1.017,0.713,0.343,0.595,0.559,��,6.9,��
2022/05/04,04:10,0.564,0.837,0.537,1.019,0.713,0.343,0.594,0.559,��,7.2,��
2022/05/04,04:20,0.564,0.836,0.536,1.018,0.714,0.342,0.595,0.560,��,7.5,��
2022/05/04,04:30,0.563,0.836,0.537,1.019,0.714,0.343,0.593,0.560,��,8.2,��
2022/05/04,04:40,0.564,0.837,0.538,1.019,0.714,0.342,0.597,0.560,��,8.6,��
2022/05/04,04:50,0.563,0.837,0.539,1.016,0.714,0.342,0.594,0.559,��,9.3,��
2022/05/04,05:00,0.564,0.834,0.538,1.016,0.714,0.343,0.595,0.561,��,9.2,��
2022/05/04,05:10,0.565,0.836,0.538,1.016,0.713,0.344,0.594,0.560,��,9.2,��
2022/05/04,05:20,0.564,0.837,0.537,1.017,0.714,0.344,0.594,0.560,��,9.2,��
2022/05/04,05:30,0.563,0.835,0.539,1.017,0.714,0.344,0.597,0.559,��쓌,8.4,��
2022/05/04,05:40,0.565,0.836,0.540,1.017,0.713,0.345,0.597,0.560,��,8.7,��
2022/05/04,05:50,0.565,0.835,0.540,1.017,0.715,0.344,0.596,0.560,��쓌,8.6,��
2022/05/04,06:00,0.564,0.837,0.540,1.016,0.715,0.344,0.597,0.560,��,8.5,��
2022/05/04,06:10,0.564,0.838,0.538,1.019,0.713,0.344,0.595,0.560,��,7.6,��
2022/05/04,06:20,0.563,0.838,0.538,1.017,0.713,0.345,0.596,0.560,��쓌,8.3,��
2022/05/04,06:30,0.564,0.840,0.539,1.017,0.714,0.344,0.596,0.561,��,7.7,��
2022/05/04,06:40,0.567,0.839,0.539,1.017,0.713,0.344,0.595,0.561,��,8.5,��
2022/05/04,06:50,0.566,0.838,0.541,1.018,0.717,0.344,0.595,0.563,��,8.8,��
2022/05/04,07:00,0.564,0.838,0.540,1.019,0.716,0.343,0.595,0.560,��,9.5,��
2022/05/04,07:10,0.566,0.839,0.539,1.021,0.714,0.342,0.596,0.562,��,10.0,��
2022/05/04,07:20,0.564,0.838,0.540,1.017,0.715,0.342,0.596,0.561,��,9.2,��
2022/05/04,07:30,0.566,0.837,0.541,1.017,0.714,0.341,0.596,0.560,��쓌,9.9,��
2022/05/04,07:40,0.565,0.836,0.541,1.020,0.715,0.342,0.597,0.562,��쓌,9.6,��
2022/05/04,07:50,0.566,0.836,0.539,1.021,0.716,0.342,0.597,0.562,��,9.2,��
2022/05/04,08:00,0.566,0.836,0.539,1.019,0.715,0.343,0.595,0.562,��쓌,8.7,��
2022/05/04,08:10,0.565,0.837,0.541,1.018,0.714,0.343,0.596,0.560,��쓌,9.7,��
2022/05/04,08:20,0.564,0.837,0.539,1.018,0.715,0.343,0.596,0.559,��,10.2,��
2022/05/04,08:30,0.566,0.839,0.540,1.018,0.714,0.343,0.594,0.559,��쓌,11.7,��
2022/05/04,08:40,0.567,0.837,0.540,1.019,0.715,0.343,0.594,0.558,��,11.0,��
2022/05/04,08:50,0.565,0.837,0.540,1.019,0.715,0.342,0.594,0.558,��,10.8,��
2022/05/04,09:00,0.565,0.837,0.540,1.020,0.713,0.343,0.593,0.559,��쓌,10.5,��
2022/05/04,09:10,0.564,0.838,0.538,1.020,0.716,0.345,0.594,0.559,��,9.9,��
2022/05/04,09:20,0.566,0.839,0.540,1.018,0.717,0.344,0.595,0.559,��,13.0,��
2022/05/04,09:30,0.566,0.839,0.540,1.019,0.715,0.344,0.594,0.560,��,11.3,��
2022/05/04,09:40,0.563,0.839,0.540,1.020,0.715,0.344,0.595,0.559,��,10.4,��
2022/05/04,09:50,0.566,0.838,0.539,1.018,0.715,0.344,0.593,0.559,��,11.1,��
2022/05/04,10:00,0.567,0.840,0.539,1.020,0.717,0.343,0.593,0.558,��,11.1,��
2022/05/04,10:10,0.567,0.840,0.539,1.022,0.717,0.344,0.594,0.559,��,12.2,��
2022/05/04,10:20,0.566,0.841,0.540,1.022,0.717,0.344,0.595,0.560,��쓌,11.6,��
2022/05/04,10:30,0.567,0.839,0.540,1.019,0.716,0.345,0.593,0.558,��,11.0,��
2022/05/04,10:40,0.565,0.840,0.538,1.020,0.717,0.344,0.594,0.561,��쓌,10.7,��
2022/05/04,10:50,0.567,0.841,0.539,1.022,0.718,0.344,0.594,0.560,��쓌,11.7,��
2022/05/04,11:00,0.569,0.842,0.539,1.022,0.718,0.345,0.595,0.560,��,9.0,��
2022/05/04,11:10,0.568,0.842,0.539,1.021,0.718,0.344,0.595,0.560,��쓌,12.0,��
2022/05/04,11:20,0.569,0.842,0.541,1.021,0.718,0.344,0.595,0.560,��쓌,12.4,��
2022/05/04,11:30,0.569,0.842,0.540,1.019,0.718,0.346,0.595,0.559,��,11.4,��
2022/05/04,11:40,0.569,0.843,0.541,1.017,0.721,0.346,0.594,0.560,��쓌,11.4,��
2022/05/04,11:50,0.569,0.844,0.542,1.019,0.721,0.346,0.595,0.561,��,10.0,��
2022/05/04,12:00,0.568,0.844,0.542,1.019,0.719,0.345,0.595,0.562,��,8.5,��
2022/05/04,12:10,0.570,0.846,0.541,1.021,0.721,0.345,0.595,0.561,��,9.4,��
2022/05/04,12:20,0.570,0.845,0.544,1.020,0.721,0.345,0.597,0.561,��,6.7,��
2022/05/04,12:30,0.570,0.842,0.542,1.019,0.720,0.346,0.595,0.561,��,7.6,��
2022/05/04,12:40,0.571,0.844,0.543,1.022,0.721,0.346,0.597,0.560,��쓌,6.9,��
2022/05/04,12:50,0.570,0.845,0.543,1.022,0.720,0.346,0.596,0.562,��,8.2,��
2022/05/04,13:00,0.568,0.845,0.542,1.021,0.722,0.347,0.596,0.560,��,8.8,��
2022/05/04,13:10,0.571,0.845,0.542,1.022,0.721,0.346,0.596,0.562,��,9.5,��
2022/05/04,13:20,0.570,0.845,0.542,1.024,0.721,0.347,0.594,0.561,��,8.7,��
2022/05/04,13:30,0.571,0.843,0.542,1.023,0.721,0.347,0.597,0.563,��,9.4,��
2022/05/04,13:40,0.571,0.846,0.543,1.025,0.722,0.346,0.596,0.560,��,8.3,��
2022/05/04,13:50,0.570,0.846,0.543,1.024,0.722,0.347,0.596,0.561,��,9.6,��
2022/05/04,14:00,0.571,0.847,0.544,1.023,0.723,0.346,0.595,0.562,��,9.8,��
2022/05/04,14:10,0.571,0.847,0.542,1.023,0.723,0.345,0.596,0.560,��,8.8,��
2022/05/04,14:20,0.570,0.845,0.542,1.022,0.722,0.345,0.596,0.562,��,10.4,��
2022/05/04,14:30,0.571,0.846,0.544,1.022,0.722,0.347,0.597,0.562,��,9.3,��
2022/05/04,14:40,0.571,0.847,0.543,1.024,0.723,0.346,0.597,0.562,��,10.5,��
2022/05/04,14:50,0.572,0.847,0.544,1.022,0.721,0.345,0.597,0.563,��,9.4,��
2022/05/04,15:00,0.571,0.845,0.544,1.022,0.724,0.347,0.596,0.563,��,8.9,��
2022/05/04,15:10,0.571,0.845,0.543,1.021,0.724,0.346,0.598,0.562,��,7.6,��
2022/05/04,15:20,0.571,0.845,0.543,1.027,0.724,0.346,0.596,0.562,��,8.4,��
2022/05/04,15:30,0.572,0.848,0.543,1.022,0.724,0.346,0.596,0.563,��,6.0,��
2022/05/04,15:40,0.571,0.845,0.545,1.023,0.725,0.346,0.596,0.563,��,7.4,��
2022/05/04,15:50,0.573,0.845,0.546,1.026,0.723,0.347,0.596,0.560,��,6.9,��
2022/05/04,16:00,0.571,0.846,0.546,1.025,0.725,0.346,0.596,0.563,��쓌,4.5,��
2022/05/04,16:10,0.571,0.847,0.544,1.025,0.725,0.347,0.596,0.561,��,5.5,��
2022/05/04,16:20,0.571,0.849,0.543,1.025,0.724,0.346,0.596,0.562,��쐼,2.8,��
2022/05/04,16:30,0.573,0.848,0.544,1.027,0.723,0.346,0.597,0.562,���쐼,3.6,��
2022/05/04,16:40,0.572,0.847,0.544,1.026,0.726,0.346,0.596,0.561,��,5.2,��
2022/05/04,16:50,0.573,0.846,0.543,1.026,0.724,0.347,0.597,0.561,�쐼,4.8,��
2022/05/04,17:00,0.574,0.847,0.543,1.027,0.723,0.349,0.597,0.561,�쐼,4.0,��
2022/05/04,17:10,0.572,0.848,0.544,1.027,0.723,0.349,0.596,0.562,���쐼,4.7,��
2022/05/04,17:20,0.572,0.849,0.544,1.026,0.725,0.349,0.597,0.563,���쐼,4.5,��
2022/05/04,17:30,0.573,0.849,0.544,1.028,0.726,0.349,0.597,0.562,���쐼,3.1,��
2022/05/04,17:40,0.573,0.849,0.542,1.027,0.726,0.349,0.597,0.563,���쐼,3.1,��
2022/05/04,17:50,0.570,0.849,0.545,1.028,0.724,0.349,0.597,0.564,���쐼,3.7,��
2022/05/04,18:00,0.572,0.849,0.545,1.028,0.723,0.347,0.597,0.565,��,4.0,��
2022/05/04,18:10,0.573,0.851,0.543,1.031,0.725,0.348,0.595,0.564,��,3.6,��
2022/05/04,18:20,0.573,0.849,0.544,1.027,0.727,0.347,0.597,0.564,��,4.8,��
2022/05/04,18:30,0.574,0.851,0.543,1.029,0.725,0.349,0.595,0.565,��,5.1,��
2022/05/04,18:40,0.574,0.849,0.545,1.031,0.724,0.349,0.597,0.564,��,3.8,��
2022/05/04,18:50,0.573,0.850,0.548,1.029,0.729,0.351,0.598,0.564,��,4.0,��
2022/05/04,19:00,0.573,0.851,0.548,1.031,0.728,0.349,0.597,0.565,���쐼,2.0,��
2022/05/04,19:10,0.575,0.853,0.545,1.029,0.727,0.348,0.598,0.562,���쐼,1.7,��
2022/05/04,19:20,0.574,0.850,0.546,1.029,0.728,0.347,0.598,0.562,�쐼,0.8,��
2022/05/04,19:30,0.573,0.849,0.545,1.031,0.727,0.346,0.597,0.562,��쐼,1.5,��
2022/05/04,19:40,0.574,0.849,0.546,1.032,0.724,0.348,0.598,0.566,��쐼,1.1,��
2022/05/04,19:50,0.573,0.849,0.546,1.029,0.727,0.347,0.599,0.564,-,CALM,��
2022/05/04,20:00,0.573,0.849,0.547,1.030,0.725,0.348,0.598,0.564,�쐼,2.3,��
2022/05/04,20:10,0.573,0.851,0.544,1.033,0.726,0.348,0.598,0.564,�쐼,3.3,��
2022/05/04,20:20,0.574,0.849,0.546,1.030,0.726,0.349,0.596,0.562,��,3.6,��
2022/05/04,20:30,0.574,0.850,0.544,1.029,0.724,0.349,0.599,0.563,���쐼,3.7,��
2022/05/04,20:40,0.572,0.849,0.546,1.030,0.725,0.348,0.599,0.563,�쐼,2.9,��
2022/05/04,20:50,0.574,0.849,0.545,1.032,0.727,0.348,0.596,0.564,�쐼,4.8,��
2022/05/04,21:00,0.575,0.851,0.544,1.031,0.727,0.348,0.597,0.563,�쐼,4.2,��
2022/05/04,21:10,0.572,0.851,0.545,1.030,0.727,0.348,0.597,0.562,�쐼,4.1,��
2022/05/04,21:20,0.573,0.851,0.545,1.029,0.727,0.348,0.598,0.563,���쐼,5.4,��
2022/05/04,21:30,0.573,0.849,0.545,1.030,0.726,0.347,0.598,0.562,���쐼,5.9,��
2022/05/04,21:40,0.573,0.850,0.545,1.031,0.724,0.347,0.597,0.563,���쐼,7.1,��
2022/05/04,21:50,0.572,0.850,0.545,1.033,0.726,0.349,0.599,0.563,���쐼,4.4,��
2022/05/04,22:00,0.573,0.852,0.545,1.031,0.726,0.347,0.597,0.564,���쐼,4.3,��
2022/05/04,22:10,0.574,0.852,0.546,1.031,0.726,0.347,0.596,0.565,�쐼,3.7,��
2022/05/04,22:20,0.574,0.852,0.544,1.032,0.728,0.347,0.599,0.564,���쐼,3.0,��
2022/05/04,22:30,0.572,0.849,0.544,1.031,0.726,0.347,0.598,0.564,�쐼,2.3,��
2022/05/04,22:40,0.572,0.849,0.543,1.033,0.725,0.347,0.597,0.564,�쐼,3.3,��
2022/05/04,22:50,0.571,0.849,0.545,1.031,0.727,0.347,0.597,0.563,��쐼,3.0,��
2022/05/04,23:00,0.574,0.849,0.545,1.030,0.727,0.347,0.598,0.563,��쐼,2.9,��
2022/05/04,23:10,0.574,0.849,0.544,1.032,0.728,0.347,0.598,0.564,�쐼,3.7,��
2022/05/04,23:20,0.573,0.848,0.546,1.028,0.727,0.347,0.599,0.564,���쐼,3.4,��
2022/05/04,23:30,0.572,0.849,0.545,1.031,0.727,0.348,0.597,0.563,�쐼,1.9,��
2022/05/04,23:40,0.572,0.848,0.543,1.031,0.727,0.348,0.595,0.563,��,0.9,��
2022/05/04,23:50,0.572,0.848,0.545,1.032,0.727,0.345,0.600,0.564,�쐼,1.1,��
